Location: Unspecified
(41.1850°N, 73.2650°W)
Time: 12:44:37
(UTC+00:00)

ARIANE 6 FM1 Upper Stage - Visible Passes

Search period start: 17 February 2026 00:00
Search period end: 27 February 2026 00:00
Orbit: 522 x 608 km, 62.0° (Epoch: 17 February)

Date Brightness Start Highest point End Pass type
(mag) Time Alt. Az. Time Alt. Az. Time Alt. Az.
17 Feb 2.5 00:06:50 10° NNW 00:10:44 56° NE 00:10:52 55° ENE visible
18 Feb 2.4 00:06:45 10° NW 00:10:42 85° NE 00:11:45 48° SE visible
19 Feb 2.9 00:06:43 10° NW 00:10:38 62° WSW 00:12:51 24° SSE visible
20 Feb 3.8 00:06:48 10° NW 00:10:31 40° WSW 00:14:16 10° S visible
21 Feb 4.7 00:07:01 10° WNW 00:10:21 26° WSW 00:13:43 10° S visible
22 Feb 5.4 00:07:28 10° WNW 00:10:09 18° WSW 00:12:51 10° SSW visible
23 Feb 5.8 00:08:32 10° W 00:09:55 12° WSW 00:11:17 10° SW visible
